Voltar ao catálogo

STARLINK-33711

AtivoComunicaçõesVLEO
NORAD 63404·PAYLOAD·🇺🇸 United States

Lançado Mar 31, 2025 de Cape Canaveral Space Force Station

Loading…

Próximas Passagens (próximas 24 horas)

TLE

AtualizadoSource: CelesTrak SupGP

Época: Sep 15, 2026, 03:23 UTC

1 63404C 25065F   26258.14145833  .00039426  00000+0  14275-2 0  2589
2 63404  42.9993 116.7256 0001474 272.1444 286.9431 15.27569978    16

Acompanhe STARLINK-33711 em tempo real com AllMySat

Download on the App Store